Stations météo

réclame
Mon MeteoGroup
Landivisiau, France (7106): Température de l'air & dewpoint: 18.08.2019 02:00:00 - 24.08.2019 02:00:00 (CEST)Landivisiau, France (7106): Température de l'air 5cm: 18.08.2019 02:00:00 - 24.08.2019 02:00:00 (CEST)Landivisiau, France (7106): Température de l'air -20cm: 18.08.2019 02:00:00 - 24.08.2019 02:00:00 (CEST)Landivisiau, France (7106): Vitesse du vent: 18.08.2019 02:00:00 - 24.08.2019 02:00:00 (CEST)Landivisiau, France (7106): Direction du vent: 18.08.2019 02:00:00 - 24.08.2019 02:00:00 (CEST)Landivisiau, France (7106): reduced air pressure: 18.08.2019 02:00:00 - 24.08.2019 02:00:00 (CEST)Landivisiau, France (7106): visibility: 18.08.2019 02:00:00 - 24.08.2019 02:00:00 (CEST)Landivisiau, France (7106): Quantités de précipitations: 18.08.2019 02:00:00 - 24.08.2019 02:00:00 (CEST)
Date & Time tt [°C] td [°C] tt 5cm [°C] tt -20cm [°C] ff [km/h] ff [knt] dd ppp [hPa] vv [km] rr [mm]
24.08.2019 02:00:00 17,5 12,8 15,8 19,6 12 7 ESE 1018,5 33 0,0
24.08.2019 01:00:00 17,4 12,9 15,6 19,7 8 5 E 1018,7 26 0,0
24.08.2019 00:00:00 18,0 13,5 16,4 19,7 14 7 ESE 1019,0 37 0,0
23.08.2019 23:00:00 19,3 14,3 17,6 19,8 13 7 ESE 1019,2 40 0,0
23.08.2019 22:00:00 20,8 14,9 17,6 19,7 14 8 E 1019,3 18 0,0
23.08.2019 21:00:00 21,5 16,9 19,0 19,6 7 4 NE 1019,1 26 0,0
23.08.2019 20:00:00 25,4 12,6 25,4 19,5 5 3 ENE 1019,0 20 0,0
23.08.2019 19:00:00 25,2 16,1 27,0 19,3 8 5 NNE 1019,4 40 0,0
23.08.2019 18:00:00 25,6 16,2 29,1 19,0 17 9 NNE 1019,8 26 0,0
23.08.2019 17:00:00 27,5 11,5 29,9 18,7 8 4 SE 1020,3 56 0,0
23.08.2019 16:00:00 27,3 11,7 31,3 18,4 9 5 E 1020,7 20 0,0
23.08.2019 15:00:00 26,8 11,7 30,3 18,1 10 6 SE 1021,2 24 0,0
23.08.2019 14:00:00 26,4 11,3 31,2 17,9 16 9 SSE 1021,4 25 0,0
23.08.2019 13:00:00 25,5 11,3 28,4 17,8 17 9 SE 1021,9 29 0,0
23.08.2019 12:00:00 24,4 13,0 27,2 17,8 17 9 SE 1022,5 35 0,0
23.08.2019 11:00:00 22,8 13,8 24,2 17,9 14 8 SE 1022,8 35 0,0
23.08.2019 10:00:00 20,0 13,7 19,7 17,9 15 8 SE 1023,0 39 0,0
23.08.2019 09:00:00 16,9 12,2 13,7 18,0 15 8 ESE 1023,3 43 0,0
23.08.2019 08:00:00 14,1 11,4 12,3 18,1 13 7 SE 1023,5 28 0,0
23.08.2019 07:00:00 13,3 11,2 12,0 18,3 14 7 ESE 1023,7 27 0,0
23.08.2019 06:00:00 13,1 11,2 11,4 18,4 9 5 E 1024,0 12 0,0
23.08.2019 05:00:00 13,3 11,4 10,7 18,6 10 5 E 1024,4 19 0,0
23.08.2019 04:00:00 11,7 10,8 10,0 18,7 12 6 E 1024,7 13 0,0
23.08.2019 03:00:00 13,3 11,5 12,3 18,8 6 4 E 1025,0 20 0,0
23.08.2019 02:00:00 13,4 11,6 12,0 19,0 9 5 E 1025,6 20 0,0
23.08.2019 01:00:00 13,6 11,6 11,8 19,1 8 4 E 1026,0 17 0,0
23.08.2019 00:00:00 13,7 12,3 11,5 19,1 11 6 ENE 1026,2 9 0,0
22.08.2019 23:00:00 13,1 12,0 11,4 19,2 8 4 NE 1026,4 11 0,0
22.08.2019 22:00:00 13,7 11,7 12,2 19,2 8 5 NE 1026,3 17 0,0
22.08.2019 21:00:00 15,8 11,4 15,3 19,1 10 6 NE 1025,9 30 0,0
22.08.2019 20:00:00 17,8 11,4 18,9 18,9 12 6 NE 1025,8 36 0,0
22.08.2019 19:00:00 19,0 12,0 22,7 18,7 15 8 N 1025,7 54 0,0
22.08.2019 18:00:00 19,7 11,7 25,5 18,4 15 8 NNE 1025,9 29 0,0
22.08.2019 17:00:00 20,5 13,5 27,4 18,2 16 8 N 1025,8 20 0,0
22.08.2019 16:00:00 21,2 13,6 26,8 17,8 13 7 N 1025,9 45 0,0
22.08.2019 15:00:00 21,1 14,0 27,2 17,6 14 7 N 1026,0 25 0,0
22.08.2019 14:00:00 20,5 13,9 26,5 17,3 10 6 NNW 1026,4 26 0,0
22.08.2019 13:00:00 20,3 13,0 25,7 17,2 6 4 ENE 1026,6 42 0,0
22.08.2019 12:00:00 19,8 13,3 25,1 17,2 5 3 NNE 1026,8 18 0,0
22.08.2019 11:00:00 18,6 13,9 21,4 17,2 5 3 ENE 1026,7 20 0,0
22.08.2019 10:00:00 15,5 13,3 15,2 17,3 4 2 E 1026,8 8 0,0
22.08.2019 09:00:00 12,6 12,4 9,0 17,4 0 0 N 1026,9 0,4 0,0
22.08.2019 08:00:00 9,6 9,1 8,0 17,6 3 2 ESE 1026,8 0,1 0,2
22.08.2019 07:00:00 10,6 10,0 7,1 17,8 0 0 N 1026,3 0,1 0,0
22.08.2019 06:00:00 10,2 9,4 6,4 17,9 2 1 NNW 1026,2 0,2 0,0
22.08.2019 05:00:00 10,8 10,0 6,2 18,1 3 2 ENE 1026,1 14 0,0
22.08.2019 04:00:00 10,8 9,7 5,9 18,2 4 2 NNE 1026,3 0,6 0,0
22.08.2019 03:00:00 11,7 10,6 7,6 18,3 4 2 ENE 1026,4 15 0,0
22.08.2019 02:00:00 12,0 11,2 8,2 18,4 4 2 ENE 1026,7 2,0 0,0
22.08.2019 01:00:00 12,0 11,1 8,2 18,5 3 2 NNE 1026,9 2,1 0,0
22.08.2019 00:00:00 12,9 11,8 8,9 18,6 3 2 NNE 1026,9 4,3 0,0
21.08.2019 23:00:00 14,2 11,5 12,0 18,6 3 2 ENE 1026,7 31 0,0
21.08.2019 22:00:00 15,1 10,9 13,5 18,6 5 3 NE 1026,7 33 0,0
21.08.2019 21:00:00 15,9 10,9 15,5 18,5 8 4 NNE 1026,4 34 0,0
21.08.2019 20:00:00 18,0 12,7 19,6 18,3 10 5 NE 1025,8 26 0,0
21.08.2019 19:00:00 19,1 12,8 23,0 18,1 11 6 NNE 1025,8 20 0,0
21.08.2019 18:00:00 19,6 12,8 25,2 17,9 13 7 NNE 1026,0 28 0,0
21.08.2019 17:00:00 19,6 12,4 25,1 17,7 14 7 NNE 1026,4 29 0,0
21.08.2019 16:00:00 19,7 12,9 21,7 17,4 19 11 N 1026,5 20 0,0
21.08.2019 15:00:00 21,4 11,7 23,4 17,2 6 4 N 1026,5 36 0,0
21.08.2019 14:00:00 20,8 10,3 22,2 17,0 6 3 E 1026,6 35 0,0
21.08.2019 13:00:00 20,2 11,4 21,3 16,9 5 3 W 1027,0 20 0,0
21.08.2019 12:00:00 19,8 11,8 24,2 16,9 4 2 WSW 1027,4 27 0,0
21.08.2019 11:00:00 17,2 11,9 18,9 16,9 6 3 S 1027,7 19 0,0
21.08.2019 10:00:00 14,7 11,3 13,0 17,0 6 4 ESE 1027,8 20 0,0
21.08.2019 09:00:00 11,4 10,3 9,9 17,1 6 4 ESE 1028,2 17 0,0
21.08.2019 08:00:00 10,7 10,1 7,8 17,2 3 2 E 1027,9 1,1 0,0
21.08.2019 07:00:00 9,7 9,1 6,1 17,3 6 3 E 1027,8 0,2 0,0
21.08.2019 06:00:00 10,9 10,0 9,1 17,4 4 2 E 1027,7 2,5 0,2
21.08.2019 05:00:00 10,6 9,7 8,8 17,6 9 5 ESE 1027,8 11 0,0
21.08.2019 04:00:00 10,4 9,6 8,6 17,7 9 5 SE 1028,1 14 0,0
21.08.2019 03:00:00 10,9 10,1 8,3 17,8 5 3 ESE 1028,1 13 0,0
21.08.2019 02:00:00 11,4 10,5 8,5 17,9 7 4 SE 1028,6 12 0,0
21.08.2019 01:00:00 11,6 10,7 7,7 18,0 5 3 SE 1028,8 16 0,0
21.08.2019 00:00:00 11,6 10,3 8,0 18,1 5 3 ENE 1029,0 7 0,0
20.08.2019 23:00:00 12,5 10,6 8,9 18,1 4 2 ENE 1028,9 23 0,0
20.08.2019 22:00:00 12,9 10,6 8,5 18,1 3 2 ENE 1028,5 26 0,0
20.08.2019 21:00:00 13,8 10,0 11,3 18,1 7 4 N 1028,2 34 0,0
20.08.2019 20:00:00 16,2 10,3 18,7 17,9 13 7 N 1027,8 30 0,0
20.08.2019 19:00:00 17,1 10,9 22,1 17,8 16 9 N 1027,4 33 0,0
20.08.2019 18:00:00 18,0 12,0 19,8 17,7 16 9 N 1027,3 20 0,0
20.08.2019 17:00:00 18,0 11,5 20,1 17,5 15 8 N 1027,1 10 0,0
20.08.2019 16:00:00 18,2 12,2 18,9 17,3 15 8 NNW 1027,1 25 0,0
20.08.2019 15:00:00 18,6 11,9 19,5 17,2 16 9 NNW 1026,8 20 0,0
20.08.2019 14:00:00 17,6 10,9 19,4 17,1 9 5 WNW 1026,7 26 0,0
20.08.2019 13:00:00 17,9 11,2 17,9 17,0 7 4 WNW 1026,6 20 0,0
20.08.2019 12:00:00 16,3 11,4 17,2 17,0 8 4 WNW 1026,5 34 0,0
20.08.2019 11:00:00 17,1 11,8 17,9 17,0 3 2 SW 1026,2 19 0,0
20.08.2019 10:00:00 14,7 12,7 17,8 17,1 4 2 SW 1025,9 17 0,0
20.08.2019 09:00:00 12,0 11,5 9,5 17,2 8 4 SSW 1025,5 18 0,0
20.08.2019 08:00:00 10,1 9,6 8,2 17,3 6 3 SSW 1025,0 11 0,0
20.08.2019 07:00:00 11,0 10,5 8,5 17,4 8 5 WSW 1024,3 12 0,2
20.08.2019 06:00:00 11,2 10,6 8,8 17,5 8 4 WSW 1023,8 13 0,0
20.08.2019 05:00:00 12,5 11,2 11,2 17,6 6 3 W 1023,6 1,3 0,0
20.08.2019 04:00:00 12,6 11,3 11,3 17,7 8 4 WSW 1023,3 2,3 0,0
20.08.2019 03:00:00 12,9 11,6 10,1 17,8 9 5 WSW 1023,5 3,1 0,0
20.08.2019 02:00:00 12,1 11,0 10,1 17,9 9 5 WSW 1023,6 20 0,0
20.08.2019 01:00:00 12,8 11,5 10,5 18,0 10 5 SW 1023,5 26 0,0
20.08.2019 00:00:00 12,6 11,2 10,3 18,0 10 5 SW 1023,3 23 0,0
19.08.2019 23:00:00 14,2 11,4 13,0 18,0 8 4 W 1022,9 41 0,0
19.08.2019 22:00:00 14,4 11,2 12,7 18,0 8 4 W 1022,8 34 0,0
19.08.2019 21:00:00 15,7 11,1 15,0 18,0 9 5 W 1022,0 41 0,0
19.08.2019 20:00:00 17,2 10,8 17,9 17,9 15 8 W 1021,4 34 0,0
19.08.2019 19:00:00 18,4 11,0 18,6 17,8 17 9 W 1021,1 52 0,0
19.08.2019 18:00:00 19,0 10,0 19,6 17,7 24 13 W 1020,8 15 0,0
19.08.2019 17:00:00 18,9 9,9 20,2 17,6 24 13 WSW 1020,5 29 0,0
19.08.2019 16:00:00 19,7 11,2 21,6 17,4 23 12 W 1020,4 30 0,0
19.08.2019 15:00:00 18,7 10,8 20,3 17,3 22 12 W 1020,3 31 0,0
19.08.2019 14:00:00 18,8 12,1 17,9 17,2 18 10 W 1019,9 20 0,0
19.08.2019 13:00:00 18,3 12,7 15,7 17,2 15 8 WNW 1019,8 44 0,0
19.08.2019 12:00:00 17,8 11,8 18,0 17,2 17 9 W 1019,4 20 0,0
19.08.2019 11:00:00 17,0 12,5 17,4 17,2 18 10 W 1018,9 40 0,0
19.08.2019 10:00:00 16,3 13,2 18,3 17,3 14 8 WSW 1018,3 20 0,0
19.08.2019 09:00:00 14,0 12,9 12,7 17,4 13 7 SW 1018,2 19 0,0
19.08.2019 08:00:00 12,2 11,7 10,1 17,5 13 7 SW 1017,9 16 0,0
19.08.2019 07:00:00 11,8 11,2 10,1 17,6 13 7 SW 1017,2 16 0,0
19.08.2019 06:00:00 12,5 11,6 11,1 17,7 13 7 SW 1016,8 19 0,0
19.08.2019 05:00:00 12,8 11,7 11,3 17,8 14 7 WSW 1016,6 19 0,0
19.08.2019 04:00:00 12,7 11,8 11,4 17,9 12 7 SW 1016,8 19 0,0
19.08.2019 03:00:00 13,3 12,0 11,9 18,0 14 8 WSW 1016,4 29 0,0
19.08.2019 02:00:00 13,0 11,7 11,9 18,0 14 8 SW 1016,5 19 0,0
19.08.2019 01:00:00 13,5 12,2 12,4 18,1 14 8 WSW 1016,2 20 0,0
19.08.2019 00:00:00 14,0 12,2 13,0 18,1 14 8 SW 1015,8 20 0,0
18.08.2019 23:00:00 14,7 12,6 13,7 18,1 14 7 SW 1015,5 32 0,0
18.08.2019 22:00:00 15,2 12,9 14,0 18,1 14 8 WSW 1014,8 11 0,0
18.08.2019 21:00:00 15,9 12,5 15,6 18,1 20 11 W 1014,1 36 0,0
18.08.2019 20:00:00 16,9 12,2 16,6 18,1 19 11 W 1013,6 33 0,0
18.08.2019 19:00:00 17,2 12,5 17,1 17,9 24 13 W 1013,3 20 0,0
18.08.2019 18:00:00 18,4 11,7 17,6 17,8 23 13 W 1012,9 14 0,0
18.08.2019 17:00:00 18,5 11,1 18,6 17,7 27 15 W 1012,7 25 0,0
18.08.2019 16:00:00 18,7 11,5 19,5 17,6 27 15 W 1012,3 28 0,0
18.08.2019 15:00:00 18,8 10,6 19,8 17,4 23 12 W 1011,8 26 0,0
18.08.2019 14:00:00 19,1 10,9 18,4 17,4 29 16 W 1011,3 29 0,0
18.08.2019 13:00:00 18,5 11,6 17,3 17,4 27 14 W 1011,0 20 0,0
18.08.2019 12:00:00 16,8 11,9 16,8 17,4 19 10 W 1010,6 37 0,0
18.08.2019 11:00:00 16,8 12,3 17,4 17,4 24 13 W 1009,8 20 0,0
18.08.2019 10:00:00 16,4 12,7 18,0 17,4 19 10 W 1009,1 21 0,0
18.08.2019 09:00:00 14,7 13,1 13,6 17,5 16 8 W 1008,4 19 0,0
18.08.2019 08:00:00 13,8 13,3 12,6 17,6 11 6 WSW 1007,5 16 0,0
18.08.2019 07:00:00 13,3 12,8 12,7 17,7 11 6 W 1006,9 18 0,0
18.08.2019 06:00:00 14,3 14,0 14,1 17,8 13 7 W 1006,0 18 0,0
18.08.2019 05:00:00 14,1 13,9 13,4 17,8 13 7 WNW 1005,9 15 0,0
18.08.2019 04:00:00 13,8 13,3 13,3 17,9 14 8 WNW 1005,5 42 0,0
18.08.2019 03:00:00 13,9 13,6 13,6 18,0 20 11 SSE 1003,6 52 0,0
18.08.2019 02:00:00 13,9 13,7 13,7 18,0 14 8 SSE 1005,4 8 1,4

tt = Température de l'air
td = dewpoint
tt 5cm = Température de l'air 5cm
tt -20cm = Température de l'air -20cm
ff = Vitesse du vent
dd = Direction du vent
ppp = reduced air pressure
vv = visibility
rr = Quantités de précipitations

stations d'obs. à proximité